Torna al catalogo

STARLINK-4145

AttivoComunicazioniVLEO
NORAD 53137·PAYLOAD·🇺🇸 United States

Lanciato Jul 17, 2022 da Cape Canaveral Space Force Station

Loading…

Prossimi Passaggi (prossime 24 ore)

TLE

AggiornatoSource: CelesTrak SupGP

Epoca: Sep 14, 2026, 21:19 UTC

1 53137C 22083F   26257.88868056  .00028588  00000+0  81781-3 0  2570
2 53137  53.1584  32.4479 0001202  78.5513   5.0209 15.35388889    15

Traccia STARLINK-4145 in tempo reale con AllMySat

Download on the App Store